User: anonymous   Login
Location: Prostejov
(49.4670°N, 17.1170°E)
Time: 12:00:52
(UTC+02:00)
Language:

ISS - Orbit

View from above orbital plane
View from above orbital plane
View from above satellite
View from above satellite

Ground track
Ground track

The orbit data is extracted from the following two-line orbital elements,

1 25544U 98067A   24164.96786152  .00016556  00000-0  29195-3 0  9993
2 25544  51.6410 336.1742 0008046 289.9927 206.1217 15.50506438457898
Epoch (UTC): 12 June 2024 23:13:43
Eccentricity: 0.0008046
inclination: 51.6410°
perigee height: 410 km
apogee height: 421 km
right ascension of ascending node: 336.1742°
argument of perigee: 289.9927°
revolutions per day: 15.50506438
mean anomaly at epoch: 206.1217°
orbit number at epoch: 45789

The dashed part of the orbit path shows where the satellite is in the earth's shadow,  

DLR